This is the latest recevied weather packets stored in our database for station/object DF9PM-13. If no packets are shown the sender has not sent any weather packets the latest 10 day(s).
| Time | Temp. | Humidity | Pressure | Rain* | Wind** | Luminosity | Snow |
|---|---|---|---|---|---|---|---|
| 1777538349 | 14.44° C | 23% | 1028.8 hPa | - | - | - | - |
| 1777538049 | 15° C | 24% | 1028.7 hPa | - | - | - | - |
| 1777537749 | 13.89° C | 25% | 1028.8 hPa | - | - | - | - |
| 1777537449 | 15° C | 24% | 1028.8 hPa | - | - | - | - |
| 1777537149 | 15° C | 24% | 1028.8 hPa | - | - | - | - |
| 1777536849 | 14.44° C | 25% | 1028.8 hPa | - | - | - | - |
| 1777536549 | 15.56° C | 24% | 1028.8 hPa | - | - | - | - |
| 1777536249 | 12.22° C | 27% | 1028.9 hPa | - | - | - | - |
| 1777535949 | 13.89° C | 26% | 1028.9 hPa | - | - | - | - |
| 1777535045 | 11.67° C | 28% | 1028.9 hPa | - | - | - | - |
| 1777534745 | 11.67° C | 28% | 1028.9 hPa | - | - | - | - |
| 1777534445 | 12.78° C | 27% | 1028.8 hPa | - | - | - | - |
| 1777534145 | 13.89° C | 27% | 1028.8 hPa | - | - | - | - |
| 1777533845 | 12.22° C | 28% | 1028.9 hPa | - | - | - | - |
| 1777533545 | 11.67° C | 28% | 1028.9 hPa | - | - | - | - |
| 1777533245 | 12.78° C | 29% | 1028.8 hPa | - | - | - | - |
| 1777532945 | 11.67° C | 30% | 1028.8 hPa | - | - | - | - |
| 1777532645 | 11.11° C | 30% | 1028.9 hPa | - | - | - | - |
| 1777532344 | 11.11° C | 31% | 1028.8 hPa | - | - | - | - |
| 1777532045 | 10.56° C | 31% | 1028.8 hPa | - | - | - | - |
| 1777531744 | 10.56° C | 31% | 1028.8 hPa | - | - | - | - |
| 1777531144 | 10° C | 32% | 1029 hPa | - | - | - | - |
| 1777530844 | 10° C | 32% | 1028.9 hPa | - | - | - | - |
| 1777530544 | 10° C | 33% | 1028.9 hPa | - | - | - | - |
| 1777530244 | 9.44° C | 33% | 1028.8 hPa | - | - | - | - |
* Rain since midnight (hover to see other rain measurements)
** Current wind speed in m/s (hover to see current wind gust speed)